{"data":{"norad_id":56532,"epoch":"2026-05-24T23:48:47.441664Z","epoch_age_seconds":78816,"freshness":"FRESH","line1":"1 56532U 23065AF  26144.99221576  .00000035  00000+0  10792-4 0  9995","line2":"2 56532  43.0022 127.3172 0000986 282.6814  77.3927 15.27576257168435","mean_motion":15.27576257,"eccentricity":9.86e-5,"inclination_deg":43.0022,"raan_deg":127.3172,"arg_perigee_deg":282.6814,"mean_anomaly_deg":77.3927,"bstar":1.0792e-5,"rev_number":16843,"period_min":94.266979694226,"perigee_km":482.38378989691,"apogee_km":483.73681800525,"semimajor_km":6861.1973039511,"source":"CELESTRAK","updated_at":"2026-05-25T13:38:18.112392Z"}}